STARLINK-36060, 67090

Orbit data source: Space-Track

STARLINK-36060, 67090 is a payload satellite owned by SpaceX/Seattle (US) in LEO that was launched on Sun, 14 Dec 2025 UTC via an FALCON 9 launch vehicle from the Air Force Western Test Range (AFWTR). Payload-class satellites include a variety of spacecraft equipped with specific instruments for various scientific and technological missions. These include communications satellites like Starlink; space stations such as the ISS; scientific satellites like the Hubble; Earth observation satellites from companies like Planet Labs, Umbra, and HawkEye 360; GPS; miniature CubeSats for education and research; and military/defense satellites.

Loading next visibility...
Identifier
67090, 2025-298R
Orbit
LEO
Country
Flag of USUS
Related business
Manufacturer
SpaceX/Seattle
Mission
Operational Commercial Communications
Bus & Motor
STARLINK V2MO, Unknown motor
Mass
575 kg wet, ~530 kg dry
Launch date (UTC)
2025-12-14 (6 months ago)
Launch vehicle
FALCON 9
Launch site
Air Force Western Test Range (AFWTR)
Object type
Payload
Rocket body
Debris
Shape & HBR
Box + 2 Pan, 17.7 m
Radar Cross Section
36.964 m², Large (>1 m²)

Expand to show TLE details & history
Last TLE update: 17 hours ago

TLE from 17 hours ago
0 STARLINK-36060
1 67090U 25298R   26171.27504483 -.00002099  00000-0 -16816-3 0  9995
2 67090  70.0016 115.8037 0003032 265.4204  94.6609 14.98329408 28589
Epoch: 2026-06-20T06:36Z
TLE epoch observation values (Epoch: 2026-06-20T06:36:03.873Z)
Latitude
0.00001°
Longitude
108.29556°
Altitude
574.654 km
Speed
7.574 km/s
True Right ascension
07h 43m 12s
True Declination
0° 00' 00"
Sunlit
Object was in daylight at epoch
Visualization orbit readout
Latitude
Unknown
Longitude
Unknown
Altitude
Unknown
Speed
Unknown
Apparent Right ascension
Unknown
Apparent Declination
Unknown
Sunlit
N/A
Visualization observer readout
Local Sidereal Time
10:17:12
Azimuth
Unknown
Elevation
Unknown
Doppler factor
Unknown
Orbital elements
Apogee altitude
572.112 km
Perigee altitude
567.899 km
Semi-major axis
6,948.143 km
Eccentricity
0.0003
Inclination
70.0016°
RAAN
115.8037°
Arg. of periapsis
265.4204°
True anomaly
94.69553°
Mean anomaly
94.6609°
Eccentric anomaly
94.67821°
Mean motion
3.74749 °/min
Orbital period
96.06 mins
BSTAR
-0.00016816
Loading maneuver chart data...
Computing Atmospheric mass density...
Loading historical data...
Loading historical data...
Loading historical data...
Loading historical data...
Loading historical data...
Loading historical data...
Loading historical data...

Documentation

Showing up to 5 results
|